Time,TemperatureF,DewpointF,PressureIn,WindDirection,WindDirectionDegrees,WindSpeedMPH,WindSpeedGustMPH,Humidity,HourlyPrecipIn,Conditions,Clouds,dailyrainin,SoftwareType,DateUTC
2013-01-15 00:00:00,68.0,62.2,29.95,East,90,0.0,0.0,77,0.00,,,0.00,Homeseer,2013-01-15 05:00:00,
2013-01-15 00:01:00,68.0,62.2,29.95,East,90,0.0,0.0,77,0.00,,,0.00,Homeseer,2013-01-15 05:01:00,
2013-01-15 00:02:00,68.0,62.2,29.95,East,90,0.0,0.0,77,0.00,,,0.00,Homeseer,2013-01-15 05:02:00,
2013-01-15 00:04:00,68.0,62.2,29.95,East,90,0.0,0.0,77,0.00,,,0.00,Homeseer,2013-01-15 05:04:00,
2013-01-15 00:09:00,68.0,62.2,29.95,ENE,68,0.0,0.0,77,0.00,,,0.00,Homeseer,2013-01-15 05:09:00,
2013-01-15 01:00:00,68.0,62.2,29.95,East,90,0.0,0.0,77,0.00,,,0.00,Homeseer,2013-01-15 06:00:00,
2013-01-15 01:01:00,68.0,62.2,29.95,East,90,0.0,0.0,77,0.00,,,0.00,Homeseer,2013-01-15 06:01:00,
2013-01-15 01:05:00,68.0,62.2,29.95,East,90,0.0,0.0,77,0.00,,,0.00,Homeseer,2013-01-15 06:05:00,
2013-01-15 01:10:00,68.0,62.2,29.95,East,90,0.0,0.0,77,0.00,,,0.00,Homeseer,2013-01-15 06:10:00,
2013-01-15 02:00:00,68.0,62.2,29.95,East,90,0.0,0.0,77,0.00,,,0.00,Homeseer,2013-01-15 07:00:00,
2013-01-15 02:01:00,68.0,62.2,29.95,East,90,0.0,0.0,77,0.00,,,0.00,Homeseer,2013-01-15 07:01:00,
2013-01-15 02:05:00,68.0,62.2,29.95,East,90,0.0,0.0,77,0.00,,,0.00,Homeseer,2013-01-15 07:05:00,
2013-01-15 02:10:00,68.0,62.2,29.95,East,90,0.0,0.0,77,0.00,,,0.00,Homeseer,2013-01-15 07:10:00,
2013-01-15 03:00:00,68.0,62.2,29.95,East,90,0.0,0.0,77,0.00,,,0.00,Homeseer,2013-01-15 08:00:00,
2013-01-15 03:01:00,68.0,62.2,29.95,East,90,0.0,0.0,77,0.00,,,0.00,Homeseer,2013-01-15 08:01:00,
2013-01-15 03:05:00,68.0,62.2,29.95,East,90,0.0,0.0,77,0.00,,,0.00,Homeseer,2013-01-15 08:05:00,
2013-01-15 03:10:00,68.0,62.2,29.95,East,90,0.0,0.0,77,0.00,,,0.00,Homeseer,2013-01-15 08:10:00,
2013-01-15 04:00:00,68.0,62.2,29.95,East,90,0.0,0.0,77,0.00,,,0.00,Homeseer,2013-01-15 09:00:00,
2013-01-15 04:01:00,68.0,62.2,29.95,East,90,0.0,0.0,77,0.00,,,0.00,Homeseer,2013-01-15 09:01:00,
2013-01-15 04:05:00,68.0,62.2,29.95,East,90,0.0,0.0,77,0.00,,,0.00,Homeseer,2013-01-15 09:05:00,
2013-01-15 04:10:00,68.0,62.2,29.95,East,90,0.0,0.0,77,0.00,,,0.00,Homeseer,2013-01-15 09:10:00,
2013-01-15 05:00:00,68.0,62.2,29.95,East,90,0.0,0.0,77,0.00,,,0.00,Homeseer,2013-01-15 10:00:00,
2013-01-15 05:01:00,68.0,62.2,29.95,East,90,0.0,0.0,77,0.00,,,0.00,Homeseer,2013-01-15 10:01:00,
2013-01-15 05:05:00,68.0,62.2,29.95,East,90,0.0,0.0,77,0.00,,,0.00,Homeseer,2013-01-15 10:05:00,
2013-01-15 05:10:00,68.0,62.2,29.95,East,90,0.0,0.0,77,0.00,,,0.00,Homeseer,2013-01-15 10:10:00,
2013-01-15 06:00:00,58.0,56.5,29.95,East,90,0.0,0.0,93,0.00,,,0.00,Homeseer,2013-01-15 11:00:00,
2013-01-15 06:01:00,58.0,56.2,29.95,East,90,0.0,0.0,92,0.00,,,0.00,Homeseer,2013-01-15 11:01:00,
2013-01-15 06:05:00,58.0,56.5,29.95,East,90,0.0,0.0,93,0.00,,,0.00,Homeseer,2013-01-15 11:05:00,
2013-01-15 06:10:00,58.0,56.2,29.95,East,90,0.0,0.0,92,0.00,,,0.00,Homeseer,2013-01-15 11:10:00,
2013-01-15 07:00:00,58.0,56.5,29.95,East,90,0.0,0.0,93,0.00,,,0.00,Homeseer,2013-01-15 12:00:00,
2013-01-15 07:01:00,58.0,56.2,29.95,East,90,0.0,0.0,92,0.00,,,0.00,Homeseer,2013-01-15 12:01:00,
2013-01-15 07:06:00,58.0,56.5,29.95,East,90,0.0,0.0,93,0.00,,,0.00,Homeseer,2013-01-15 12:06:00,
2013-01-15 07:11:00,58.0,56.7,29.95,East,90,0.0,0.0,94,0.00,,,0.00,Homeseer,2013-01-15 12:11:00,
2013-01-15 08:00:00,60.0,59.1,29.95,ENE,68,0.0,0.0,96,0.00,,,0.00,Homeseer,2013-01-15 13:00:00,
2013-01-15 08:01:00,61.0,60.3,29.95,ESE,112,0.0,0.0,97,0.00,,,0.00,Homeseer,2013-01-15 13:01:00,
2013-01-15 08:05:00,60.0,59.3,29.95,ENE,68,0.0,0.0,97,0.00,,,0.00,Homeseer,2013-01-15 13:05:00,
2013-01-15 08:10:00,61.0,60.3,29.95,ESE,112,0.0,0.0,97,0.00,,,0.00,Homeseer,2013-01-15 13:10:00,
2013-01-15 09:00:00,62.0,62.0,29.95,ENE,68,0.0,0.0,100,0.00,,,0.00,Homeseer,2013-01-15 14:00:00,
2013-01-15 09:01:00,62.0,62.0,29.95,ENE,68,0.0,0.0,100,0.00,,,0.00,Homeseer,2013-01-15 14:01:00,
2013-01-15 09:05:00,62.0,62.0,29.95,ENE,68,0.0,0.0,100,0.00,,,0.00,Homeseer,2013-01-15 14:05:00,
2013-01-15 09:10:00,62.0,62.0,29.95,ENE,68,0.0,0.0,100,0.00,,,0.00,Homeseer,2013-01-15 14:10:00,
2013-01-15 10:00:00,62.0,60.9,29.95,ENE,68,0.0,0.0,95,0.00,,,0.00,Homeseer,2013-01-15 15:00:00,
2013-01-15 10:01:00,62.0,60.7,29.95,ENE,68,0.0,0.0,94,0.00,,,0.00,Homeseer,2013-01-15 15:01:00,
2013-01-15 10:05:00,62.0,61.1,29.95,ENE,68,0.0,0.0,96,0.00,,,0.00,Homeseer,2013-01-15 15:05:00,
2013-01-15 10:10:00,62.0,60.9,29.95,ENE,68,0.0,0.0,95,0.00,,,0.00,Homeseer,2013-01-15 15:10:00,
2013-01-15 11:00:00,62.0,57.7,29.95,ENE,68,0.0,0.0,82,0.00,,,0.00,Homeseer,2013-01-15 16:00:00,
2013-01-15 11:01:00,62.0,57.2,29.95,ENE,68,0.0,0.0,80,0.00,,,0.00,Homeseer,2013-01-15 16:01:00,
2013-01-15 11:05:00,62.0,58.0,29.95,ENE,68,0.0,0.0,83,0.00,,,0.00,Homeseer,2013-01-15 16:05:00,
2013-01-15 11:10:00,62.0,57.2,29.95,ENE,68,0.0,0.0,80,0.00,,,0.00,Homeseer,2013-01-15 16:10:00,
2013-01-15 12:00:00,62.0,55.9,29.95,ENE,68,0.0,0.0,75,0.00,,,0.00,Homeseer,2013-01-15 17:00:00,
2013-01-15 12:01:00,62.0,55.3,29.95,ENE,68,0.0,0.0,73,0.00,,,0.00,Homeseer,2013-01-15 17:01:00,
2013-01-15 12:05:00,62.0,55.6,29.95,ENE,68,0.0,0.0,74,0.00,,,0.00,Homeseer,2013-01-15 17:05:00,
2013-01-15 12:10:00,62.0,55.9,29.95,ENE,68,0.0,0.0,75,0.00,,,0.00,Homeseer,2013-01-15 17:10:00,
2013-01-15 13:00:00,62.0,54.4,29.95,ENE,68,0.0,0.0,70,0.00,,,0.00,Homeseer,2013-01-15 18:00:00,
2013-01-15 13:01:00,62.0,54.4,29.95,ENE,68,0.0,0.0,70,0.00,,,0.00,Homeseer,2013-01-15 18:01:00,
2013-01-15 13:05:00,62.0,54.4,29.95,ENE,68,0.0,0.0,70,0.00,,,0.00,Homeseer,2013-01-15 18:05:00,
2013-01-15 13:10:00,62.0,54.1,29.95,ENE,68,0.0,0.0,69,0.00,,,0.00,Homeseer,2013-01-15 18:10:00,
2013-01-15 14:00:00,62.0,54.7,29.95,ENE,68,0.0,0.0,71,0.00,,,0.00,Homeseer,2013-01-15 19:00:00,
2013-01-15 14:01:00,62.0,53.5,29.95,ENE,68,0.0,0.0,67,0.00,,,0.00,Homeseer,2013-01-15 19:01:00,
2013-01-15 14:05:00,62.0,54.4,29.95,ENE,68,0.0,0.0,70,0.00,,,0.00,Homeseer,2013-01-15 19:05:00,
2013-01-15 14:10:00,62.0,53.8,29.95,ENE,68,0.0,0.0,68,0.00,,,0.00,Homeseer,2013-01-15 19:10:00,
2013-01-15 15:00:00,62.0,53.2,29.95,ENE,68,0.0,0.0,66,0.00,,,0.00,Homeseer,2013-01-15 20:00:00,
2013-01-15 15:01:00,62.0,52.9,29.95,ENE,68,0.0,0.0,65,0.00,,,0.00,Homeseer,2013-01-15 20:01:00,
2013-01-15 15:05:00,62.0,52.9,29.95,ENE,68,0.0,0.0,65,0.00,,,0.00,Homeseer,2013-01-15 20:05:00,
2013-01-15 15:10:00,62.0,52.9,29.95,ENE,68,0.0,0.0,65,0.00,,,0.00,Homeseer,2013-01-15 20:10:00,
2013-01-15 16:00:00,62.0,53.8,29.95,ENE,68,0.0,0.0,68,0.00,,,0.00,Homeseer,2013-01-15 21:00:00,
2013-01-15 16:01:00,62.0,53.8,29.95,ENE,68,0.0,0.0,68,0.00,,,0.00,Homeseer,2013-01-15 21:01:00,
2013-01-15 16:05:00,62.0,53.5,29.95,ENE,68,0.0,0.0,67,0.00,,,0.00,Homeseer,2013-01-15 21:05:00,
2013-01-15 16:10:00,62.0,53.8,29.95,ENE,68,0.0,0.0,68,0.00,,,0.00,Homeseer,2013-01-15 21:10:00,
2013-01-15 17:00:00,62.0,54.4,29.95,ENE,68,0.0,0.0,70,0.00,,,0.00,Homeseer,2013-01-15 22:00:00,
2013-01-15 17:01:00,62.0,53.5,29.95,ENE,68,0.0,0.0,67,0.00,,,0.00,Homeseer,2013-01-15 22:01:00,
2013-01-15 17:05:00,62.0,54.1,29.95,ENE,68,0.0,0.0,69,0.00,,,0.00,Homeseer,2013-01-15 22:05:00,
2013-01-15 17:10:00,62.0,54.1,29.95,ENE,68,0.0,0.0,69,0.00,,,0.00,Homeseer,2013-01-15 22:10:00,
2013-01-15 18:00:00,62.0,54.7,29.95,ENE,68,0.0,0.0,71,0.00,,,0.00,Homeseer,2013-01-15 23:00:00,
2013-01-15 18:01:00,62.0,55.0,29.95,ENE,68,0.0,0.0,72,0.00,,,0.00,Homeseer,2013-01-15 23:01:00,
2013-01-15 18:05:00,62.0,54.7,29.95,ENE,68,0.0,0.0,71,0.00,,,0.00,Homeseer,2013-01-15 23:05:00,
2013-01-15 18:10:00,62.0,55.3,29.95,ENE,68,0.0,0.0,73,0.00,,,0.00,Homeseer,2013-01-15 23:10:00,
2013-01-15 19:00:00,62.0,55.0,29.95,ENE,68,0.0,0.0,72,0.00,,,0.00,Homeseer,2013-01-16 00:00:00,
2013-01-15 19:01:00,62.0,55.3,29.95,ENE,68,0.0,0.0,73,0.00,,,0.00,Homeseer,2013-01-16 00:01:00,
2013-01-15 19:05:00,62.0,54.7,29.95,ENE,68,0.0,0.0,71,0.00,,,0.00,Homeseer,2013-01-16 00:05:00,
2013-01-15 19:10:00,62.0,54.7,29.95,ENE,68,0.0,0.0,71,0.00,,,0.00,Homeseer,2013-01-16 00:10:00,
2013-01-15 20:00:00,62.0,55.9,29.95,ENE,68,0.0,0.0,75,0.00,,,0.00,Homeseer,2013-01-16 01:00:00,
2013-01-15 20:01:00,62.0,55.9,29.95,ENE,68,0.0,0.0,75,0.00,,,0.00,Homeseer,2013-01-16 01:01:00,
2013-01-15 20:05:00,62.0,55.9,29.95,ENE,68,0.0,0.0,75,0.00,,,0.00,Homeseer,2013-01-16 01:05:00,
2013-01-15 20:10:00,62.0,55.9,29.95,ENE,68,0.0,0.0,75,0.00,,,0.00,Homeseer,2013-01-16 01:10:00,
2013-01-15 21:00:00,71.0,65.9,29.95,SSE,158,0.0,0.0,80,0.00,,,0.00,Homeseer,2013-01-16 02:00:00,
2013-01-15 21:01:00,71.0,66.5,29.95,ESE,112,0.0,0.0,82,0.00,,,0.00,Homeseer,2013-01-16 02:01:00,
2013-01-15 21:05:00,71.0,65.9,29.95,SSE,158,0.0,0.0,80,0.00,,,0.00,Homeseer,2013-01-16 02:05:00,
2013-01-15 21:10:00,71.0,66.2,29.95,ESE,112,0.0,0.0,81,0.00,,,0.00,Homeseer,2013-01-16 02:10:00,
2013-01-15 22:00:00,71.0,67.0,29.95,ESE,112,0.0,0.0,84,0.00,,,0.00,Homeseer,2013-01-16 03:00:00,
2013-01-15 22:01:00,70.0,65.8,29.95,ESE,112,1.0,2.0,83,0.00,,,0.00,Homeseer,2013-01-16 03:01:00,
2013-01-15 22:05:00,71.0,66.8,29.95,East,90,0.0,0.0,83,0.00,,,0.00,Homeseer,2013-01-16 03:05:00,
2013-01-15 22:10:00,70.0,65.8,29.95,ENE,68,0.0,0.0,83,0.00,,,0.00,Homeseer,2013-01-16 03:10:00,
2013-01-15 23:00:00,68.0,64.1,29.95,ESE,112,0.0,0.0,84,0.00,,,0.00,Homeseer,2013-01-16 04:00:00,
2013-01-15 23:01:00,68.0,64.4,29.95,ENE,68,0.0,0.0,85,0.00,,,0.00,Homeseer,2013-01-16 04:01:00,
2013-01-15 23:05:00,68.0,64.4,29.95,East,90,0.0,0.0,85,0.00,,,0.00,Homeseer,2013-01-16 04:05:00,
2013-01-15 23:10:00,68.0,64.4,29.95,East,90,0.0,0.0,85,0.00,,,0.00,Homeseer,2013-01-16 04:10:00,